User: anonymous   Login
Location: Caltech
(34.1382°N, 118.1253°W)
Time: 05:03:55
(UTC-07:00)
Language:

SL-16 R/B - Orbit

View from above orbital plane
View from above orbital plane
View from above satellite
View from above satellite

Ground track
Ground track

The orbit data is extracted from the following two-line orbital elements,

1 28353U 04021B   15116.83418647  .00002970  00000-0  15820-2 0  9999
2 28353 071.0028 279.1148 0007213 297.4492 062.5896 14.14156132561559
Epoch (UTC): 26 April 2015 20:01:13
Eccentricity: 0.0007213
inclination: 71.0028°
perigee height: 840 km
apogee height: 850 km
right ascension of ascending node: 279.1148°
argument of perigee: 297.4492°
revolutions per day: 14.14156132
mean anomaly at epoch: 62.5896°
orbit number at epoch: 56155

The dashed part of the orbit path shows where the satellite is in the earth's shadow,  

DLR